| time (UTC) | temp F | wind direction | speed MPH | gust MPH | rain 1hr in | rain 24hr in | rain mn in | humidity % | barometer mb |
| 20260507000518 | 75 | 203 | 2.0 | 9.0 | 0.00 | 0.00 | 0.00 | 53 | 1015.9 |
| 20260506235537 | 75 | 158 | 3.0 | 11.0 | 0.00 | 0.00 | 0.00 | 51 | 1015.8 |
| 20260506234516 | 75 | 158 | 3.0 | 10.0 | 0.00 | 0.00 | 0.00 | 51 | 1015.9 |
| 20260506233517 | 75 | 68 | 2.0 | 8.0 | 0.00 | 0.00 | 0.00 | 52 | 1016.1 |
| 20260506232516 | 75 | 113 | 2.0 | 9.0 | 0.00 | 0.00 | 0.00 | 52 | 1016.0 |
| 20260506231516 | 76 | 135 | 3.0 | 9.0 | 0.00 | 0.00 | 0.00 | 50 | 1016.1 |
| 20260506230536 | 76 | 135 | 2.0 | 8.0 | 0.00 | 0.00 | 0.00 | 51 | 1016.2 |
| 20260506225557 | 77 | 68 | 2.0 | 9.0 | 0.00 | 0.00 | 0.00 | 51 | 1016.3 |
| 20260506224516 | 77 | 90 | 2.0 | 12.0 | 0.00 | 0.00 | 0.00 | 50 | 1016.4 |
| 20260506223517 | 77 | 90 | 1.0 | 7.0 | 0.00 | 0.00 | 0.00 | 50 | 1016.4 |
| 20260506222517 | 77 | 135 | 1.0 | 5.0 | 0.00 | 0.00 | 0.00 | 49 | 1016.5 |
| 20260506221516 | 77 | 203 | 2.0 | 9.0 | 0.00 | 0.00 | 0.00 | 49 | 1016.6 |
| 20260506220517 | 77 | 180 | 1.0 | 5.0 | 0.00 | 0.00 | 0.00 | 49 | 1016.7 |
| 20260506215536 | 77 | 135 | 1.0 | 7.0 | 0.00 | 0.00 | 0.00 | 50 | 1016.9 |
| 20260506214516 | 76 | 135 | 1.0 | 6.0 | 0.00 | 0.00 | 0.00 | 51 | 1017.0 |
| 20260506213516 | 76 | 135 | 1.0 | 7.0 | 0.00 | 0.00 | 0.00 | 51 | 1017.1 |
| 20260506212517 | 76 | 135 | 1.0 | 8.0 | 0.00 | 0.00 | 0.00 | 51 | 1017.2 |
| 20260506211517 | 75 | 225 | 1.0 | 7.0 | 0.00 | 0.00 | 0.00 | 54 | 1017.3 |
| 20260506210517 | 74 | 135 | 2.0 | 10.0 | 0.00 | 0.00 | 0.00 | 53 | 1017.4 |
| 20260506205516 | 74 | 135 | 1.0 | 6.0 | 0.00 | 0.00 | 0.00 | 53 | 1017.6 |
| 20260506204516 | 74 | 225 | 1.0 | 6.0 | 0.00 | 0.00 | 0.00 | 53 | 1017.6 |
| 20260506203516 | 73 | 135 | 1.0 | 5.0 | 0.00 | 0.00 | 0.00 | 55 | 1017.7 |
| 20260506202516 | 72 | 135 | 2.0 | 8.0 | 0.00 | 0.00 | 0.00 | 55 | 1017.9 |
| 20260506201516 | 72 | 225 | 1.0 | 7.0 | 0.00 | 0.00 | 0.00 | 55 | 1018.0 |
| 20260506200516 | 72 | 0.0 | 6.0 | 0.00 | 0.00 | 0.00 | 56 | 1018.0 | |
| 20260506195516 | 71 | 0.0 | 3.0 | 0.00 | 0.00 | 0.00 | 57 | 1018.1 | |
| 20260506194516 | 70 | 225 | 1.0 | 5.0 | 0.00 | 0.00 | 0.00 | 59 | 1018.2 |
| 20260506193516 | 69 | 45 | 1.0 | 6.0 | 0.00 | 0.00 | 0.00 | 59 | 1018.2 |
| 20260506192516 | 69 | 0.0 | 2.0 | 0.00 | 0.00 | 0.00 | 61 | 1018.4 | |
| 20260506191516 | 68 | 0.0 | 2.0 | 0.00 | 0.00 | 0.00 | 62 | 1018.5 | |
| 20260506190516 | 67 | 0.0 | 1.0 | 0.00 | 0.00 | 0.00 | 63 | 1018.6 | |
| 20260506185516 | 67 | 270 | 1.0 | 3.0 | 0.00 | 0.00 | 0.00 | 62 | 1018.7 |
| 20260506184516 | 66 | 0.0 | 4.0 | 0.00 | 0.00 | 0.00 | 64 | 1018.8 | |
| 20260506183516 | 65 | 180 | 1.0 | 5.0 | 0.00 | 0.00 | 0.00 | 65 | 1018.9 |
| 20260506182537 | 65 | 0.0 | 2.0 | 0.00 | 0.00 | 0.00 | 65 | 1018.9 | |
| 20260506181516 | 65 | 0.0 | 6.0 | 0.00 | 0.00 | 0.00 | 66 | 1018.9 | |
| 20260506180516 | 64 | 225 | 1.0 | 3.0 | 0.00 | 0.00 | 0.00 | 66 | 1018.9 |
| 20260506175516 | 64 | 0.0 | 3.0 | 0.00 | 0.00 | 0.00 | 66 | 1018.9 | |
| 20260506174516 | 64 | 225 | 1.0 | 4.0 | 0.00 | 0.00 | 0.00 | 67 | 1019.0 |
| 20260506173516 | 63 | 158 | 1.0 | 5.0 | 0.00 | 0.00 | 0.00 | 68 | 1019.0 |
| 20260506172516 | 63 | 0.0 | 2.0 | 0.00 | 0.00 | 0.00 | 68 | 1019.1 | |
| 20260506171516 | 63 | 0.0 | 3.0 | 0.00 | 0.00 | 0.00 | 70 | 1019.1 | |
| 20260506170536 | 62 | 0.0 | 1.0 | 0.00 | 0.00 | 0.00 | 70 | 1019.1 | |
| 20260506165536 | 62 | 0.0 | 4.0 | 0.00 | 0.00 | 0.00 | 72 | 1019.1 | |
| 20260506164516 | 61 | 0.0 | 1.0 | 0.00 | 0.00 | 0.00 | 72 | 1019.1 | |
| 20260506163516 | 61 | 0.0 | 1.0 | 0.00 | 0.00 | 0.00 | 73 | 1019.1 | |
| 20260506162516 | 61 | 0.0 | 3.0 | 0.00 | 0.00 | 0.00 | 74 | 1019.1 | |
| 20260506161516 | 60 | 0.0 | 3.0 | 0.00 | 0.00 | 0.00 | 75 | 1019.2 | |
| 20260506160516 | 59 | 0.0 | 1.0 | 0.00 | 0.00 | 0.00 | 76 | 1019.2 | |
| 20260506155516 | 59 | 0.0 | 0.0 | 0.00 | 0.00 | 0.00 | 76 | 1019.1 | |
| 20260506154516 | 59 | 0.0 | 0.0 | 0.00 | 0.00 | 0.00 | 77 | 1019.1 | |
| 20260506153516 | 59 | 0.0 | 0.0 | 0.00 | 0.00 | 0.00 | 78 | 1019.1 | |
| 20260506152516 | 58 | 0.0 | 2.0 | 0.00 | 0.00 | 0.00 | 80 | 1019.2 | |
| 20260506151516 | 58 | 0.0 | 0.0 | 0.00 | 0.00 | 0.00 | 81 | 1019.2 | |
| 20260506150516 | 58 | 0.0 | 0.0 | 0.00 | 0.00 | 0.00 | 83 | 1019.2 | |
| 20260506145516 | 57 | 0.0 | 0.0 | 0.00 | 0.00 | 0.00 | 84 | 1019.2 | |
| 20260506144516 | 56 | 0.0 | 0.0 | 0.00 | 0.00 | 0.00 | 85 | 1019.2 | |
| 20260506143516 | 56 | 0.0 | 0.0 | 0.00 | 0.00 | 0.00 | 86 | 1019.1 | |
| 20260506142516 | 55 | 0.0 | 0.0 | 0.00 | 0.00 | 0.00 | 86 | 1019.2 | |
| 20260506141516 | 55 | 0.0 | 0.0 | 0.00 | 0.00 | 0.00 | 86 | 1019.1 | |
| 20260506140536 | 53 | 0.0 | 0.0 | 0.00 | 0.00 | 0.00 | 85 | 1018.9 | |
| 20260506135516 | 53 | 0.0 | 0.0 | 0.00 | 0.00 | 0.00 | 85 | 1018.8 | |
| 20260506134536 | 53 | 0.0 | 0.0 | 0.00 | 0.00 | 0.00 | 84 | 1018.6 | |
| 20260506133515 | 53 | 0.0 | 0.0 | 0.00 | 0.00 | 0.00 | 84 | 1018.5 | |
| 20260506132516 | 53 | 0.0 | 0.0 | 0.00 | 0.00 | 0.00 | 84 | 1018.4 | |
| 20260506131535 | 53 | 0.0 | 0.0 | 0.00 | 0.00 | 0.00 | 85 | 1018.3 | |
| 20260506130518 | 54 | 0.0 | 0.0 | 0.00 | 0.00 | 0.00 | 85 | 1018.2 | |
| 20260506125517 | 54 | 0.0 | 0.0 | 0.00 | 0.00 | 0.00 | 85 | 1018.1 | |
| 20260506124517 | 54 | 0.0 | 0.0 | 0.00 | 0.00 | 0.00 | 85 | 1018.1 | |
| 20260506123517 | 54 | 0.0 | 0.0 | 0.00 | 0.00 | 0.00 | 85 | 1018.1 | |
| 20260506122538 | 54 | 0.0 | 0.0 | 0.00 | 0.00 | 0.00 | 85 | 1018.1 | |
| 20260506121538 | 53 | 0.0 | 0.0 | 0.00 | 0.00 | 0.00 | 85 | 1018.0 | |
| 20260506120518 | 53 | 0.0 | 0.0 | 0.00 | 0.00 | 0.00 | 85 | 1018.0 | |
| 20260506115517 | 54 | 0.0 | 0.0 | 0.00 | 0.00 | 0.00 | 85 | 1018.0 | |
| 20260506114517 | 54 | 0.0 | 0.0 | 0.00 | 0.00 | 0.00 | 85 | 1017.8 | |
| 20260506113517 | 53 | 0.0 | 0.0 | 0.00 | 0.00 | 0.00 | 85 | 1017.8 | |
| 20260506112517 | 53 | 0.0 | 0.0 | 0.00 | 0.00 | 0.00 | 85 | 1017.7 | |
| 20260506111517 | 53 | 0.0 | 0.0 | 0.00 | 0.00 | 0.00 | 85 | 1017.7 | |
| 20260506110517 | 53 | 0.0 | 0.0 | 0.00 | 0.00 | 0.00 | 85 | 1017.7 | |
| 20260506105518 | 53 | 0.0 | 0.0 | 0.00 | 0.00 | 0.00 | 85 | 1017.7 | |
| 20260506104517 | 53 | 0.0 | 0.0 | 0.00 | 0.00 | 0.00 | 84 | 1017.6 | |
| 20260506103518 | 53 | 0.0 | 0.0 | 0.00 | 0.00 | 0.00 | 83 | 1017.6 | |
| 20260506102517 | 54 | 0.0 | 0.0 | 0.00 | 0.00 | 0.00 | 83 | 1017.5 | |
| 20260506101518 | 54 | 0.0 | 0.0 | 0.00 | 0.00 | 0.00 | 82 | 1017.5 | |
| 20260506100518 | 55 | 0.0 | 0.0 | 0.00 | 0.00 | 0.00 | 81 | 1017.6 | |
| 20260506095517 | 55 | 0.0 | 0.0 | 0.00 | 0.00 | 0.00 | 81 | 1017.5 | |
| 20260506094537 | 55 | 0.0 | 0.0 | 0.00 | 0.00 | 0.00 | 81 | 1017.4 | |
| 20260506093537 | 55 | 0.0 | 0.0 | 0.00 | 0.00 | 0.00 | 80 | 1017.4 | |
| 20260506092517 | 56 | 0.0 | 0.0 | 0.00 | 0.00 | 0.00 | 80 | 1017.5 | |
| 20260506091517 | 56 | 0.0 | 0.0 | 0.00 | 0.00 | 0.00 | 80 | 1017.5 | |
| 20260506090517 | 56 | 0.0 | 0.0 | 0.00 | 0.00 | 0.00 | 79 | 1017.6 | |
| 20260506085517 | 56 | 0.0 | 0.0 | 0.00 | 0.00 | 0.00 | 79 | 1017.4 | |
| 20260506084538 | 57 | 0.0 | 0.0 | 0.00 | 0.00 | 0.00 | 79 | 1017.4 | |
| 20260506083517 | 57 | 0.0 | 0.0 | 0.00 | 0.00 | 0.00 | 79 | 1017.5 | |
| 20260506082517 | 57 | 0.0 | 0.0 | 0.00 | 0.00 | 0.00 | 79 | 1017.6 | |
| 20260506081517 | 57 | 0.0 | 0.0 | 0.00 | 0.00 | 0.00 | 79 | 1017.5 | |
| 20260506080517 | 57 | 0.0 | 2.0 | 0.00 | 0.00 | 0.00 | 79 | 1017.4 | |
| 20260506073517 | 58 | 135 | 1.0 | 2.0 | 0.00 | 0.00 | 0.00 | 78 | 1017.3 |
| 20260506072517 | 58 | 0.0 | 2.0 | 0.00 | 0.00 | 0.00 | 78 | 1017.3 | |
| 20260506071517 | 58 | 0.0 | 4.0 | 0.00 | 0.00 | 0.00 | 78 | 1017.2 | |
| 20260506070537 | 58 | 0.0 | 2.0 | 0.00 | 0.00 | 0.00 | 78 | 1017.0 | |
| 20260506061517 | 58 | 0.0 | 2.0 | 0.00 | 0.00 | 0.00 | 77 | 1016.8 | |
| 20260506060517 | 58 | 0 | 1.0 | 6.0 | 0.00 | 0.00 | 0.00 | 77 | 1016.6 |
| 20260506050517 | 59 | 225 | 2.0 | 6.0 | 0.00 | 0.00 | 0.00 | 76 | 1016.3 |
| 20260506044517 | 59 | 248 | 2.0 | 6.0 | 0.00 | 0.00 | 0.00 | 75 | 1016.0 |
| 20260506043517 | 59 | 338 | 1.0 | 3.0 | 0.00 | 0.00 | 0.00 | 75 | 1016.0 |
| 20260506042537 | 60 | 203 | 2.0 | 8.0 | 0.00 | 0.00 | 0.00 | 74 | 1015.9 |
| 20260506041517 | 60 | 225 | 1.0 | 3.0 | 0.00 | 0.00 | 0.00 | 73 | 1015.8 |
| 20260506040517 | 60 | 180 | 1.0 | 6.0 | 0.00 | 0.00 | 0.00 | 73 | 1015.6 |
| 20260506035517 | 60 | 0.0 | 2.0 | 0.00 | 0.00 | 0.00 | 72 | 1015.4 | |
| 20260506034517 | 60 | 0.0 | 1.0 | 0.00 | 0.00 | 0.00 | 72 | 1015.3 | |
| 20260506033517 | 60 | 0.0 | 4.0 | 0.00 | 0.00 | 0.00 | 72 | 1015.3 | |
| 20260506032537 | 60 | 0.0 | 1.0 | 0.00 | 0.00 | 0.00 | 72 | 1015.1 | |
| 20260506031557 | 60 | 0.0 | 2.0 | 0.00 | 0.00 | 0.00 | 72 | 1015.0 | |
| 20260506030517 | 60 | 0.0 | 2.0 | 0.00 | 0.00 | 0.00 | 71 | 1015.0 | |
| 20260506025517 | 61 | 0.0 | 2.0 | 0.00 | 0.00 | 0.00 | 71 | 1014.7 | |
| 20260506024537 | 61 | 0.0 | 1.0 | 0.00 | 0.00 | 0.00 | 71 | 1014.6 | |
| 20260506023517 | 61 | 158 | 1.0 | 5.0 | 0.00 | 0.00 | 0.00 | 71 | 1014.6 |
| 20260506022517 | 61 | 0.0 | 1.0 | 0.00 | 0.00 | 0.00 | 70 | 1014.5 | |
| 20260506021516 | 61 | 0.0 | 3.0 | 0.00 | 0.00 | 0.00 | 70 | 1014.5 | |
| 20260506020516 | 61 | 0.0 | 2.0 | 0.00 | 0.00 | 0.00 | 69 | 1014.3 | |
| 20260506015517 | 61 | 0.0 | 1.0 | 0.00 | 0.00 | 0.00 | 69 | 1014.4 | |
| 20260506014516 | 61 | 0.0 | 2.0 | 0.00 | 0.00 | 0.00 | 69 | 1014.5 | |
| 20260506013516 | 62 | 0.0 | 1.0 | 0.00 | 0.00 | 0.00 | 69 | 1014.5 | |
| 20260506012516 | 62 | 0.0 | 0.0 | 0.00 | 0.00 | 0.00 | 68 | 1014.4 | |
| 20260506011516 | 62 | 0.0 | 0.0 | 0.00 | 0.00 | 0.00 | 67 | 1014.4 | |
| 20260506010517 | 62 | 0.0 | 1.0 | 0.00 | 0.00 | 0.00 | 67 | 1014.3 | |
| 20260506005517 | 62 | 0.0 | 0.0 | 0.00 | 0.00 | 0.00 | 66 | 1014.3 | |
| 20260506004517 | 62 | 0.0 | 0.0 | 0.00 | 0.00 | 0.00 | 66 | 1014.3 | |
| 20260506003516 | 62 | 0.0 | 0.0 | 0.00 | 0.00 | 0.00 | 65 | 1014.3 | |
| 20260506002516 | 63 | 0.0 | 1.0 | 0.00 | 0.00 | 0.00 | 66 | 1014.2 | |
| 20260506001516 | 63 | 0.0 | 0.0 | 0.00 | 0.00 | 0.00 | 66 | 1014.1 |